Weather in Kazanovka

Russia / Chelyabinsk Oblast     53°30′19″N   61°13′26″E
temp.,
°C
wind,
m/s
gust,
m/s
humid.,
%
clouds,
%
prec.,
mm/h
press.,
hPa
HPBL,
m
15 may, sat
sat1523:00+22ssw34365 0.0 102455
02:00+20wsw33405 0.0 102339
05:00+18wsw33439 0.0 102426
08:00+22n22415 0.0 1024217
11:00+28wnw333032 0.0 1023932
14:00+30wnw44195 0.0 10223044
17:00+31wnw34184 0.0 10213449
20:00+27ne112830 0.0 102118
16 may, sun
sun1623:00+21wnw6124499 0.0 1022221
02:00+18nw34530 0.0 102260
05:00+17wnw33565 0.0 102323
08:00+23wnw22425 0.0 1023219
11:00+28sw22285 0.0 10231116
14:00+31sw33225 0.0 10212547
17:00+31sw44195 0.0 10203469
20:00+26w35313 0.0 102067
17 may, mon
mon1723:00+23w44354 0.0 102054
02:00+20wnw22472 0.0 102119
05:00+18w11495 0.0 102111
08:00+23w34425 0.0 1022246
11:00+29wnw34280 0.0 10211366
14:00+31wnw451911 0.0 10203817
17:00+31wnw562123 0.0 10193421
20:00+24nnw611354 0.0 1019242
18 may, tue
tue1823:00+21w334618 0.0 102037
02:00+19w34505 0.0 102044
05:00+18wnw355765 0.1 101968
08:00+23wnw454520 0.0 1019254
11:00+29wnw44263 0.0 10182799
14:00+30nw452291 0.0 10163198
17:00+29nw9827100 0.0 10161963
20:00+23wnw6104137 0.4 1016228
19 may, wed
wed1923:00+20nw48517 0.6 1017114
02:00+18nnw4961100 0.1 1017178
05:00+17nne51060100 0.1 1018291
08:00+18ne6960100 0.0 1020583
11:00+22ne67440 0.0 10211452
14:00+24ne66360 0.0 10211945
17:00+24ne55331 0.0 10211929
20:00+21ene36440 0.0 1022113